Regional Weather Roundup
Issued by NWS

Home | Current Version | Previous Version | Text Only | Print | Product List | Glossary Off
Versions: 1 2 3 4 5 6 7 8 9 10 11 12 13 14 15 16 17 18 19 20 21 22 23 24 25 26 27 28 29 30 31 32 33 34 35 36 37 38 39 40 41 42 43 44 45 46 47 48 49 50

000
ASUS43 KFSD 251002
RWRSD

WEATHER ROUNDUP FOR SOUTH DAKOTA
NATIONAL WEATHER SERVICE SIOUX FALLS SD
500 AM CDT MON MAY 25 2015

NOTE: "FAIR" INDICATES FEW OR NO CLOUDS BELOW 12,000 FEET WITH NO
SIGNIFICANT WEATHER AND/OR OBSTRUCTIONS TO VISIBILITY.


SDZ001>005-009-010-012>017-251100-
NORTHWEST AND NORTH CENTRAL SOUTH DAKOTA

CITY           SKY/WX    TMP DP  RH WIND       PRES   REMARKS
FAITH            N/A     54  52  93 N3        29.81F
MOBRIDGE       LGT RAIN  57  57 100 NE5       29.79R
$$

SDZ012>016-024>037-041>051-057-063-072>074-251100-
SOUTHWEST AND SOUTH CENTRAL SOUTH DAKOTA

CITY           SKY/WX    TMP DP  RH WIND       PRES   REMARKS
RAPID CTY ARPT CLOUDY    51  50  96 N9        29.82S
PIERRE         CLOUDY    57  56  96 N5        29.75F FOG
CUSTER         CLOUDY    45  42  89 NW3       29.86S
ELLSWORTH AFB  CLOUDY    52  52 100 N3        29.82  FOG
PHILIP         CLOUDY    56  54  93 N6        29.78F
PINE RIDGE     CLOUDY    54  52  93 N10       29.79S
WINNER         FOG       59  57  93 CALM      29.76S VSB 1/4
$$

SDZ004>011-016>023-039-040-251100-
NORTHEAST SOUTH DAKOTA

CITY           SKY/WX    TMP DP  RH WIND       PRES   REMARKS
ABERDEEN       LGT RAIN  57  55  93 NE10      29.77S
WATERTOWN      LGT RAIN  56  55  97 N6        29.73F
BROOKINGS      CLOUDY    57  55  94 NW6       29.74F
$$

SDZ017-020-022-023-036>040-048>070-251100-
SOUTHEAST SOUTH DAKOTA

CITY           SKY/WX    TMP DP  RH WIND       PRES   REMARKS
SIOUX FALLS    CLOUDY    59  57  93 W5        29.72F
HURON          CLOUDY    57  57 100 N6        29.74F FOG
CHAMBERLAIN    CLOUDY    56  56  99 N5        29.74F FOG
MITCHELL       CLOUDY    58  58 100 NW5       29.74F FOG
YANKTON        CLOUDY    59  57  94 CALM      29.73R VSB 1
$$

ABBREVIATIONS USED IN REMARKS
   TC - TEMPERATURE IN CELSIUS
  WCI - WIND CHILL INDEX
   HX - HEAT INDEX
  VSB - VISIBILITY



USA.gov is the U.S. government's official web portal to all federal, state and local government web resources and services.